Date String (YYYY-MM-DD hh:mm:ss) UTC,Instrument flags,Ambient pressure (hPa),Sample flow (lpm),Bypass flow (lpm),Sample temperature (°C),Ambient temperature (°C),ASC tube jacket temperature (°C),LED temperature (°C),Box temperature (°C),Sample RH (%),Span deviation,Mass concentration (μg/m³),Mass concentration (μg/m³),Mass concentration (μg/m³)
DateTimeUTC,F1_M11,P_M11,Q1_M11,Q2_M11,T1_M11,T2_M11,T3_M11,T4_M11,T5_M11,U1_M11,ZSPAN_M11,X2_M11,X0_M11,X1_M11
2022-10-25 09:00:00,,0820.8,5.00,0.00,23.1,21.6,00.0,31.8,25.0,08.6,0000.0,0001.99,0003.93,0001.69
2022-10-25 09:01:00,,0820.7,5.00,0.00,23.1,21.6,00.0,31.8,25.0,08.7,0000.0,0002.00,0003.50,0001.71
2022-10-25 09:02:00,,0820.7,5.00,0.00,23.1,21.6,00.0,31.9,25.0,08.8,0000.0,0001.98,0003.41,0001.72
2022-10-25 09:03:00,,0820.6,5.00,0.00,23.1,21.6,00.0,31.9,25.0,09.0,0000.0,0001.99,0003.42,0001.72
2022-10-25 09:04:00,,0820.6,5.00,0.00,23.1,21.6,00.0,31.9,25.0,09.0,0000.0,0001.97,0003.36,0001.71
2022-10-25 09:05:00,,0820.6,5.00,0.00,23.1,21.6,00.0,31.9,25.0,09.1,0000.0,0001.95,0002.74,0001.70
2022-10-25 09:06:00,,0820.6,5.00,0.00,23.1,21.6,00.0,31.9,25.0,09.1,0000.0,0001.95,0002.71,0001.70
2022-10-25 09:07:00,,0820.6,5.00,0.00,23.1,21.5,00.0,31.9,25.0,09.2,0000.0,0001.93,0002.82,0001.69
2022-10-25 09:08:00,,0820.7,5.00,0.00,23.1,21.5,00.0,31.9,25.0,09.3,0000.0,0001.91,0004.24,0001.68
2022-10-25 09:09:00,,0820.7,5.01,0.00,23.1,21.5,00.0,31.8,24.9,09.2,0000.0,0001.89,0004.20,0001.68
2022-10-25 09:10:00,,0820.7,5.00,0.00,23.0,21.5,00.0,31.9,24.9,09.4,0000.0,0001.93,0005.53,0001.68
2022-10-25 09:11:00,,0820.7,5.00,0.00,23.0,21.5,00.0,31.9,25.0,09.2,0000.0,0001.92,0005.74,0001.68
2022-10-25 09:12:00,,0820.7,5.00,0.00,23.0,21.5,00.0,31.9,25.0,09.3,0000.0,0001.92,0005.66,0001.69
2022-10-25 09:13:00,,0820.7,5.00,0.00,23.0,21.4,00.0,31.8,24.9,09.4,0000.0,0001.90,0005.65,0001.69
2022-10-25 09:14:00,,0820.7,5.00,0.00,23.0,21.4,00.0,31.8,24.9,09.5,0000.0,0001.89,0005.60,0001.71
2022-10-25 09:15:00,,0820.7,5.00,0.00,23.0,21.4,00.0,31.8,24.9,09.7,0000.0,0001.90,0006.07,0001.72
2022-10-25 09:16:00,,0820.6,5.00,0.00,23.0,21.4,00.0,31.8,24.8,09.9,0000.0,0001.89,0006.41,0001.71
2022-10-25 09:17:00,,0820.6,5.00,0.00,23.0,21.4,00.0,31.8,24.9,10.1,0000.0,0001.88,0006.43,0001.70
2022-10-25 09:18:00,,0820.6,5.00,0.00,23.0,21.4,00.0,31.8,24.9,10.2,0000.0,0001.90,0006.36,0001.71
2022-10-25 09:19:00,,0820.6,4.99,0.00,23.0,21.3,00.0,31.8,24.8,10.3,0000.0,0001.91,0004.85,0001.72
2022-10-25 09:20:00,,0820.6,5.02,0.00,22.9,21.4,00.0,31.8,24.8,10.4,0000.0,0001.89,0004.82,0001.71
2022-10-25 09:21:00,,0820.6,5.00,0.00,22.9,21.3,00.0,31.8,24.8,10.4,0000.0,0001.88,0003.72,0001.70
2022-10-25 09:22:00,,0820.6,5.00,0.00,22.9,21.3,00.0,31.8,24.8,10.6,0000.0,0001.87,0003.54,0001.69
2022-10-25 09:23:00,,0820.6,5.00,0.00,22.9,21.3,00.0,31.8,24.8,10.5,0000.0,0001.84,0003.45,0001.67
2022-10-25 09:24:00,,0820.6,4.99,0.00,22.9,21.3,00.0,31.8,24.8,10.7,0000.0,0001.82,0003.38,0001.66
2022-10-25 09:25:00,,0820.6,5.00,0.00,22.9,21.3,00.0,31.8,24.7,10.8,0000.0,0001.85,0003.69,0001.65
2022-10-25 09:26:00,,0820.6,5.00,0.00,22.9,21.2,00.0,31.8,24.6,10.8,0000.0,0001.85,0004.51,0001.64
2022-10-25 09:27:00,,0820.6,5.00,0.00,22.8,21.1,00.0,31.8,24.5,10.9,0000.0,0001.84,0004.35,0001.65
2022-10-25 09:28:00,,0820.6,4.99,0.00,22.8,21.1,00.0,31.8,24.6,10.9,0000.0,0001.84,0004.33,0001.65
2022-10-25 09:29:00,,0820.6,5.00,0.00,22.8,21.1,00.0,31.7,24.6,10.9,0000.0,0001.82,0004.56,0001.64
2022-10-25 09:30:00,,0820.6,4.99,0.00,22.8,21.1,00.0,31.7,24.6,10.9,0000.0,0001.80,0004.67,0001.64
2022-10-25 09:31:00,,0820.6,5.00,0.00,22.7,21.1,00.0,31.7,24.5,10.9,0000.0,0001.80,0004.69,0001.63
2022-10-25 09:32:00,,0820.6,5.00,0.00,22.7,21.1,00.0,31.7,24.5,10.9,0000.0,0001.78,0004.47,0001.62
2022-10-25 09:33:00,,0820.6,5.01,0.00,22.7,21.1,00.0,31.7,24.5,10.9,0000.0,0001.78,0005.09,0001.62
2022-10-25 09:34:00,,0820.7,5.00,0.00,22.7,21.0,00.0,31.7,24.5,10.9,0000.0,0001.79,0005.49,0001.63
2022-10-25 09:35:00,,0820.6,5.00,0.00,22.7,21.0,00.0,31.7,24.5,11.0,0000.0,0001.82,0005.58,0001.64
2022-10-25 09:36:00,,0820.6,5.00,0.00,22.7,21.0,00.0,31.6,24.4,11.0,0000.0,0001.81,0005.41,0001.65
2022-10-25 09:37:00,,0820.6,5.00,0.00,22.7,21.0,00.0,31.6,24.4,11.0,0000.0,0001.82,0004.26,0001.65
2022-10-25 09:38:00,,0820.6,5.00,0.00,22.6,20.9,00.0,31.6,24.4,11.1,0000.0,0001.83,0003.85,0001.65
2022-10-25 09:39:00,,0820.6,4.99,0.00,22.6,20.9,00.0,31.6,24.3,11.1,0000.0,0001.84,0003.84,0001.66
2022-10-25 09:40:00,,0820.6,5.00,0.00,22.6,20.9,00.0,31.5,24.4,11.1,0000.0,0001.88,0003.90,0001.67
2022-10-25 09:41:00,,0820.6,5.00,0.00,22.5,20.9,00.0,31.5,24.3,11.1,0000.0,0001.91,0003.96,0001.68
2022-10-25 09:42:00,,0820.6,5.01,0.00,22.5,20.9,00.0,31.5,24.3,11.2,0000.0,0001.93,0003.97,0001.70
2022-10-25 09:43:00,,0820.6,5.00,0.00,22.5,20.8,00.0,31.5,24.3,11.2,0000.0,0001.95,0003.99,0001.72
2022-10-25 09:44:00,,0820.6,5.00,0.00,22.5,20.8,00.0,31.5,24.3,11.2,0000.0,0001.97,0003.54,0001.73
2022-10-25 09:45:00,,0820.6,5.00,0.00,22.5,20.8,00.0,31.5,24.3,11.2,0000.0,0001.98,0003.02,0001.74
2022-10-25 09:46:00,,0820.7,4.98,0.00,22.5,20.8,00.0,31.5,24.3,11.2,0000.0,0002.00,0003.01,0001.75
2022-10-25 09:47:00,,0820.7,5.02,0.00,22.4,20.8,00.0,31.4,24.2,11.2,0000.0,0002.02,0003.07,0001.77
2022-10-25 09:48:00,,0820.7,5.01,0.00,22.4,20.8,00.0,31.4,24.2,11.2,0000.0,0002.00,0002.99,0001.77
2022-10-25 09:49:00,,0820.7,4.97,0.00,22.4,20.8,00.0,31.4,24.2,11.3,0000.0,0001.99,0002.96,0001.77
2022-10-25 09:50:00,,0820.7,5.01,0.00,22.4,20.8,00.0,31.4,24.2,11.3,0000.0,0002.02,0003.05,0001.78
2022-10-25 09:51:00,,0820.7,4.99,0.00,22.4,20.8,00.0,31.4,24.2,11.3,0000.0,0002.01,0002.88,0001.78
2022-10-25 09:52:00,,0820.7,5.00,0.00,22.4,20.8,00.0,31.4,24.2,11.3,0000.0,0002.00,0002.72,0001.79
2022-10-25 09:53:00,,0820.6,5.00,0.00,22.4,20.9,00.0,31.4,24.2,11.3,0000.0,0001.99,0002.69,0001.79
2022-10-25 09:54:00,,0820.6,5.00,0.00,22.4,20.9,00.0,31.4,24.3,11.3,0000.0,0002.01,0002.71,0001.78
2022-10-25 09:55:00,,0820.6,5.00,0.00,22.4,20.9,00.0,31.3,24.3,11.3,0000.0,0002.01,0002.72,0001.78
2022-10-25 09:56:00,,0820.7,5.00,0.00,22.4,20.9,00.0,31.3,24.3,11.3,0000.0,0002.01,0002.73,0001.77
2022-10-25 09:57:00,,0820.7,5.00,0.00,22.4,20.9,00.0,31.3,24.3,11.3,0000.0,0001.98,0002.65,0001.75
2022-10-25 09:58:00,,0820.7,5.00,0.00,22.4,20.9,00.0,31.3,24.3,11.3,0000.0,0001.97,0002.64,0001.75
2022-10-25 09:59:00,,0820.8,4.99,0.00,22.4,20.9,00.0,31.3,24.4,11.2,0000.0,0001.99,0002.68,0001.75
